Regional Weather Roundup
Issued by NWS

Home | Current Version | Previous Version | Text Only | Print | Product List | Glossary On
Versions: 1 2 3 4 5 6 7 8 9 10 11 12 13 14 15 16 17 18 19 20 21 22 23 24 25 26 27 28 29 30 31 32 33 34 35 36 37 38 39 40 41 42 43 44 45 46 47 48 49 50
000
ASCA44 KEWX 310520
RWRMX

LATIN AMERICA AND CARIBBEAN REGIONAL WEATHER ROUNDUP
NATIONAL WEATHER SERVICE AUSTIN/SAN ANTONIO TX
1200 AM CDT FRI OCT 31 2014

NOTE: "FAIR" INDICATED FEW OR NO CLOUDS BELOW 12,000 FEET WITH NO
SIGNIFICANT WEATHER AND/OR OBSTRUCTIONS TO VISIBILITY.

BAJA CALIFORNIA

CITY           SKY/WX    TMP DP  RH WIND       PRES   REMARKS
LA PAZ         PTCLDY    75  66  73 S7        29.95
MEXICALI       PTCLDY    73  34  23 N5        29.88
S.J. DEL CABO    N/A    N/A N/A N/A MISG        N/A
TIJUANA        PTCLDY    66  59  77 CALM      30.00R

NORTHWESTERN MEXICO

CITY           SKY/WX    TMP DP  RH WIND       PRES   REMARKS
CULIACAN       MOCLDY    79  70  73 CALM      29.88
DURANGO        CLEAR     61  37  41 N3        30.31
LOS MOCHIS       N/A    N/A N/A N/A MISG        N/A

NORTHEASTERN MEXICO

CITY           SKY/WX    TMP DP  RH WIND       PRES   REMARKS
CHIHUAHUA      PTCLDY    57  45  62 S7        30.24
MONTERREY      CLEAR     70  61  73 CALM      30.09S
REYNOSA        CLEAR     70  64  83 SE5       30.08
SALTILLO       CLEAR     57  50  77 CALM      30.28S
TORREON        CLEAR     70  41  35 CALM      30.16R
CD. VICTORIA   CLEAR     66  66 100 W6        30.11

WESTERN MEXICO

CITY           SKY/WX    TMP DP  RH WIND       PRES   REMARKS
AGUASCALIENTES CLEAR     57  43  58 NE7       30.30
DEL BAJIO      CLEAR     59  46  63 E6        30.34R
GUADALAJARA    CLEAR     55  46  71 CALM      30.18
MANZANILLO     CLEAR     79  75  89 CALM      29.78S
MAZATLAN       PTCLDY    73  66  78 W7        29.85S
P. VALLARTA      N/A    N/A N/A N/A MISG        N/A
ZACATECAS      CLEAR     55  39  54 SE7       30.33S

CENTRAL MEXICO

CITY           SKY/WX    TMP DP  RH WIND       PRES   REMARKS
MEXICO CITY    PTCLDY    57  46  67 NW10      30.38S
MORELIA        CLEAR     59  48  67 N14       30.28
PUEBLA         PTCLDY    52  46  82 N10       30.35R
QUERETARO      CLEAR     50  46  87 CALM      30.39R
S. LUIS POTOSI CLEAR     54  46  76 SE9       30.33R
TAMPICO        PTCLDY    77  66  69 NE7       30.08R
TOLUCA         PTCLDY    48  39  71 NE5       30.42R WCI  46

SOUTHERN MEXICO

CITY           SKY/WX    TMP DP  RH WIND       PRES   REMARKS
ACAPULCO       MOCLDY    79  75  89 N5        29.84S
OAXACA         PTCLDY    64  55  72 CALM      30.22S
VERACRUZ       CLOUDY    77  70  78 N5        30.03R

YUCATAN PENINSULA

CITY           SKY/WX    TMP DP  RH WIND       PRES   REMARKS
CAMPECHE       PTCLDY    75  73  94 NE6       29.94R
CANCUN         PTCLDY    72  72 100 NW5       29.94S
CHETUMAL       MOCLDY    77  72  83 CALM      29.92S
COZUMEL        PTCLDY    73  73 100 N5        29.93F
MERIDA         CLEAR     75  72  88 N5        29.97R
TAPACHULA      CLOUDY    75  73  94 E9        29.88R
TUX. GUTIERREZ PTCLDY    72  68  88 CALM      29.96R
VILLAHERMOSA   MOCLDY    77  73  88 CALM      29.98R

CENTRAL AMERICA

CITY           SKY/WX    TMP DP  RH WIND       PRES   REMARKS
MANAGUA        PTCLDY    77  73  88 E5        29.83S

CARIBBEAN

CITY           SKY/WX    TMP DP  RH WIND       PRES   REMARKS
ARUBA          PTCLDY    82  75  78 E10       29.77
CURACAO        PTCLDY    81  75  83 SE6       29.80S
KINGSTON       PTCLDY    82  73  74 N3        29.83S
NASSAU           N/A     73  66  78 CALM      29.87F
SAN JUAN       PTCLDY    79  75  89 S5        29.84F
SANTO DOMINGO  PTCLDY    75  73  94 E6        29.83S THUNDER
ST. MAARTEN    PTCLDY    82  75  78 SE9       29.86F

$$




USA.gov is the U.S. government's official web portal to all federal, state and local government web resources and services.